Regional Weather Roundup
Issued by NWS

Home | Current Version | Previous Version | Graphics & Text | Print | Product List | Glossary On
Versions: 1 2 3 4 5 6 7 8 9 10 11 12 13 14 15 16 17 18 19 20 21 22 23 24 25 26 27 28 29 30 31 32 33 34 35 36 37 38 39 40 41 42 43 44 45 46 47 48 49 50
051
ASUS45 KSLC 301310
RWRUT

UTAH REGIONAL WEATHER ROUNDUP
NATIONAL WEATHER SERVICE SALT LAKE CITY UT
700 AM MDT SUN APR 30 2017

UTZ001>011-023>025-301400-

NORTHERN UTAH

CITY           SKY/WX    TMP DP  RH WIND       PRES   REMARKS
BRIGHAM CITY   MOCLDY    37  33  84 N3        30.19R
HILL AFB       PTCLDY    37  24  60 SE14      30.18S WCI  28
LOGAN          MOCLDY    34  30  85 NW3       30.18S
OGDEN          PTCLDY    38  26  62 S12       30.17F WCI  30
SALT LAKE CITY MOCLDY    39  30  70 SE8       30.18F WCI  33
TOOELE VALLEY  MOCLDY    36  30  80 S5        30.19S WCI  32
WENDOVER       MOCLDY    39  30  70 CALM      30.18
HEBER CITY     CLEAR     25  19  80 CALM      30.22R
WEST JORDAN    PTCLDY    38  34  83 S6        30.20F WCI  34

$$

UTZ011>015-024>027-301400-

CENTRAL/NORTHEAST UTAH

CITY           SKY/WX    TMP DP  RH WIND       PRES   REMARKS
PROVO AIRPORT  PTCLDY    31  25  78 E3        30.23S
MOAB/CANYONLAN CLEAR     33  14  45 CALM      30.16R
DELTA          PTCLDY    30  27  86 NE5       30.22R WCI  25
PRICE          CLEAR     30  16  56 N5        30.17R WCI  25
RICHFIELD      CLEAR     28  23  80 CALM      30.25R
ROOSEVELT      CLEAR     28  21  74 W5        30.21R WCI  23
VERNAL         CLEAR     26  18  71 W3        30.19S

$$

UTZ013>016-019>022-027-301400-

SOUTHERN UTAH

CITY           SKY/WX    TMP DP  RH WIND       PRES   REMARKS
BRYCE CANYON   PTCLDY    20  13  74 W10       30.22R WCI   9
CEDAR CITY     CLEAR     27  20  75 E3        30.20R
MILFORD        CLEAR     27  19  72 S6        30.21S WCI  20
ST GEORGE      SUNNY     47  18  31 E8        30.17R
HANKSVILLE     CLEAR     30  12  47 CALM      30.20S
KANAB          CLEAR     32  19  59 NE7       30.24S WCI  26
BLANDING       CLEAR     31  14  49 NW5       30.20S WCI  26

$$

REGIONAL REPORTS     COLORADO/ARIZONA

CITY           SKY/WX    TMP DP  RH WIND       PRES   REMARKS
CRAIG, CO      CLEAR     21  17  84 CALM      30.17S
GRAND JUNCTION CLEAR     28  16  60 CALM      30.16R
RIFLE, CO      PTCLDY    26  19  74 SE5       30.17R WCI  20
MONTROSE, CO   CLEAR     30  23  75 SE7       30.17S WCI  23
CORTEZ, CO     CLEAR     35  16  45 NW10      30.10F WCI  27
COLORADO CITY    N/A     30  19  64 E5        30.22R WCI  25
PAGE, AZ       CLEAR     47  20  34 NW3       30.16R
GRAND CANYON   HAZE      20  11  68 CALM      30.21R VSB 1
KINGMAN, AZ    CLEAR     41  18  39 SE8       30.14F
FLAGSTAFF, AZ  CLEAR     23  13  65 CALM      30.19F

$$

REGIONAL REPORTS    NEVADA/IDAHO/WYOMING

CITY           SKY/WX    TMP DP  RH WIND       PRES   REMARKS
LAS VEGAS, NV  PTCLDY    57  18  21 W5        30.11R
ELY, NY        PTCLDY    22  17  81 S10       30.24R WCI  11
ELKO, NV       MOCLDY    33  28  81 SW3       30.21F
POCATELLO, ID  CLOUDY    45  28  51 SW8       30.14S
BURLEY, ID     CLOUDY    45  28  51 SW9       30.12S
FORT BRIDGER,    N/A     34  22  62 W10       30.20F WCI  26
EVANSTON, WY   CLOUDY    27  21  78 S8        30.19S WCI  19
ROCK SPRINGS,  CLEAR     30  22  72 W9        30.16F WCI  22

$$




USA.gov is the U.S. government's official web portal to all federal, state and local government web resources and services.